Weather History for Hammond, LA

Change the Weather History Date:

Saturday, December 1, 2012

  Actual Average (KMSY) Record (KMSY)
Temperature  
Mean Temperature 60 °F -  
Max Temperature 77 °F 67 °F 83 °F (1991)
Min Temperature 42 °F 45 °F 25 °F (1976)
Degree Days  
Heating Degree Days 6    
Growing Degree Days 10 (Base 50)    
Moisture  
Dew Point 57 °F    
Average Humidity 86    
Maximum Humidity 100    
Minimum Humidity 50    
Precipitation  
Precipitation 0.01 in - - ()
Sea Level Pressure  
Sea Level Pressure 30.23 in    
Wind  
Wind Speed 2 mph (SE)    
Max Wind Speed 9 mph    
Max Gust Speed -    
Visibility 9 miles    
Events Fog    
Averages and records for this station are not official NWS values.
T = Trace of Precipitation, MM = Missing Value Source: NWS Daily Summary

Daily Weather History Graph

Daily Weather History Graph

Search for Another Location

Airport:

Trip Planner

Search our weather history database for the weather conditions in past years. The results will help you decide how hot, cold, wet, or windy it might be!

Date:

Astronomy

Dec. 01, 2012 Rise Set
Actual Time 6:41 AM CST 5:00 PM CST
Civil Twilight 6:15 AM CST 5:26 PM CST
Nautical Twilight 5:45 AM CST 5:56 PM CST
Astronomical Twilight 5:16 AM CST 6:25 PM CST
Moon 7:46 PM CST (12/1) 8:56 AM CST (12/1)
Length of Visible Light 11h 11m
Length of Day
10h 18m
Waning Gibbous, 91% of the Moon is Illuminated
Dec 1
Waning Gibbous
Dec 6
Last Quarter
Dec 13
New
Dec 19
First Quarter
Dec 28
Full

Hourly Weather History & Observations

Time (CST) Temp. Dew Point Humidity Pressure Visibility Wind Dir Wind Speed Gust Speed Precip Events Conditions
12:15 AM 46.4 °F 46.4 °F 100% 30.23 in 10.0 mi Calm Calm - N/A   Clear
12:35 AM 44.6 °F 44.6 °F 100% 30.23 in 10.0 mi Calm Calm - N/A   Clear
12:55 AM 44.6 °F 44.6 °F 100% 30.22 in 10.0 mi Calm Calm - 0.01 in   Clear
1:15 AM 42.8 °F 42.8 °F 100% 30.22 in 10.0 mi Calm Calm - N/A   Clear
1:35 AM 42.8 °F 42.8 °F 100% 30.22 in 10.0 mi Calm Calm - N/A   Clear
2:15 AM 46.4 °F 46.4 °F 100% 30.22 in 7.0 mi Calm Calm - N/A   Mostly Cloudy
3:15 AM 46.4 °F 46.4 °F 100% 30.22 in 0.2 mi Calm Calm - N/A Fog Fog
3:35 AM 48.2 °F 48.2 °F 100% 30.22 in 0.2 mi Calm Calm - N/A Fog Fog
4:15 AM 48.2 °F 48.2 °F 100% 30.22 in 0.2 mi Calm Calm - N/A Fog Fog
4:35 AM 48.2 °F 48.2 °F 100% 30.22 in 0.8 mi Calm Calm - N/A   Overcast
5:15 AM 46.4 °F 46.4 °F 100% 30.23 in 5.0 mi Calm Calm - N/A   Clear
5:35 AM 46.4 °F 46.4 °F 100% 30.23 in 7.0 mi Calm Calm - N/A   Clear
6:35 AM 44.6 °F 44.6 °F 100% 30.25 in 7.0 mi Calm Calm - N/A   Clear
7:15 AM 46.4 °F 46.4 °F 100% 30.26 in 7.0 mi Calm Calm - N/A   Mostly Cloudy
7:35 AM 48.2 °F 48.2 °F 100% 30.26 in 4.0 mi Calm Calm - N/A   Mostly Cloudy
7:55 AM 51.8 °F 51.8 °F 100% 30.26 in 7.0 mi ENE 3.5 mph - N/A   Scattered Clouds
8:15 AM 51.8 °F 51.8 °F 100% 30.26 in 10.0 mi Calm Calm - N/A   Scattered Clouds
8:35 AM 53.6 °F 53.6 °F 100% 30.27 in 10.0 mi Calm Calm - N/A   Clear
8:55 AM 57.2 °F 55.4 °F 94% 30.27 in 10.0 mi Calm Calm - N/A   Clear
9:15 AM 59.0 °F 57.2 °F 94% 30.28 in 10.0 mi Calm Calm - N/A   Scattered Clouds
9:35 AM 62.6 °F 57.2 °F 82% 30.28 in 10.0 mi Calm Calm - N/A   Mostly Cloudy
10:15 AM 68.0 °F 57.2 °F 68% 30.28 in 10.0 mi ESE 3.5 mph - N/A   Scattered Clouds
10:35 AM 69.8 °F 57.2 °F 64% 30.27 in 10.0 mi East 3.5 mph - N/A   Scattered Clouds
10:55 AM 69.8 °F 59.0 °F 68% 30.27 in 10.0 mi Calm Calm - N/A   Scattered Clouds
11:15 AM 71.6 °F 59.0 °F 64% 30.26 in 10.0 mi Calm Calm - N/A   Scattered Clouds
11:35 AM 73.4 °F 59.0 °F 61% 30.25 in 10.0 mi East 4.6 mph - N/A   Clear
11:55 AM 75.2 °F 59.0 °F 57% 30.24 in 10.0 mi SE 5.8 mph - N/A   Clear
12:15 PM 75.2 °F 57.2 °F 53% 30.24 in 10.0 mi SSE 3.5 mph - N/A   Clear
12:35 PM 77.0 °F 57.2 °F 50% 30.23 in 10.0 mi ESE 4.6 mph - N/A   Scattered Clouds
12:55 PM 77.0 °F 59.0 °F 54% 30.22 in 10.0 mi SE 4.6 mph - N/A   Scattered Clouds
1:15 PM 77.0 °F 60.8 °F 57% 30.21 in 10.0 mi South 9.2 mph - N/A   Scattered Clouds
1:35 PM 77.0 °F 62.6 °F 61% 30.20 in 10.0 mi ESE 4.6 mph - N/A   Scattered Clouds
1:55 PM 77.0 °F 62.6 °F 61% 30.20 in 10.0 mi SSE 8.1 mph - N/A   Scattered Clouds
2:15 PM 77.0 °F 62.6 °F 61% 30.20 in 10.0 mi SE 9.2 mph - N/A   Mostly Cloudy
2:35 PM 77.0 °F 62.6 °F 61% 30.19 in 10.0 mi SE 8.1 mph - N/A   Mostly Cloudy
2:55 PM 77.0 °F 62.6 °F 61% 30.19 in 10.0 mi ESE 8.1 mph - N/A   Mostly Cloudy
3:15 PM 75.2 °F 62.6 °F 65% 30.19 in 10.0 mi SE 6.9 mph - N/A   Scattered Clouds
3:35 PM 75.2 °F 62.6 °F 65% 30.19 in 10.0 mi SE 8.1 mph - N/A   Clear
3:55 PM 73.4 °F 64.4 °F 73% 30.20 in 10.0 mi SE 8.1 mph - N/A   Clear
4:15 PM 71.6 °F 64.4 °F 78% 30.20 in 10.0 mi ESE 9.2 mph - N/A   Clear
4:35 PM 69.8 °F 64.4 °F 83% 30.20 in 10.0 mi SE 8.1 mph - N/A   Clear
4:55 PM 68.0 °F 64.4 °F 88% 30.20 in 10.0 mi SE 6.9 mph - N/A   Clear
5:15 PM 66.2 °F 62.6 °F 88% 30.21 in 10.0 mi SE 6.9 mph - N/A   Scattered Clouds
5:55 PM 66.2 °F 62.6 °F 88% 30.21 in 10.0 mi ESE 5.8 mph - N/A   Scattered Clouds
6:15 PM 66.2 °F 62.6 °F 88% 30.22 in 10.0 mi SE 6.9 mph - N/A   Mostly Cloudy
6:35 PM 66.2 °F 62.6 °F 88% 30.22 in 10.0 mi ESE 5.8 mph - N/A   Mostly Cloudy
6:55 PM 64.4 °F 62.6 °F 94% 30.22 in 10.0 mi SE 4.6 mph - N/A   Scattered Clouds
7:15 PM 64.4 °F 62.6 °F 94% 30.23 in 10.0 mi SE 4.6 mph - N/A   Scattered Clouds
7:35 PM 64.4 °F 62.6 °F 94% 30.23 in 10.0 mi ESE 4.6 mph - N/A   Scattered Clouds
7:55 PM 64.4 °F 62.6 °F 94% 30.23 in 10.0 mi SE 3.5 mph - N/A   Mostly Cloudy
8:15 PM 64.4 °F 62.6 °F 94% 30.23 in 10.0 mi SE 4.6 mph - N/A   Scattered Clouds
8:35 PM 62.6 °F 60.8 °F 94% 30.23 in 10.0 mi SE 3.5 mph - N/A   Clear
8:55 PM 62.6 °F 62.6 °F 100% 30.23 in 10.0 mi ESE 3.5 mph - N/A   Mostly Cloudy
9:15 PM 64.4 °F 62.6 °F 94% 30.23 in 10.0 mi ESE 3.5 mph - N/A   Overcast
9:35 PM 64.4 °F 62.6 °F 94% 30.23 in 10.0 mi ESE 4.6 mph - N/A   Overcast
9:55 PM 62.6 °F 62.6 °F 100% 30.23 in 10.0 mi ESE 4.6 mph - N/A   Scattered Clouds
10:15 PM 60.8 °F 60.8 °F 100% 30.23 in 10.0 mi ESE 4.6 mph - N/A   Clear
10:35 PM 60.8 °F 60.8 °F 100% 30.23 in 10.0 mi ESE 3.5 mph - N/A   Clear
10:55 PM 60.8 °F 60.8 °F 100% 30.24 in 7.0 mi Calm Calm - N/A   Clear
11:15 PM 60.8 °F 60.8 °F 100% 30.23 in 7.0 mi ESE 3.5 mph - N/A   Clear
11:35 PM 60.8 °F 60.8 °F 100% 30.23 in 7.0 mi ESE 3.5 mph - N/A   Clear
11:55 PM 60.8 °F 60.8 °F 100% 30.23 in 7.0 mi ESE 3.5 mph - N/A   Clear